| time (UTC) | temp F | wind direction | speed MPH | gust MPH | rain 1hr in | rain 24hr in | rain mn in | humidity % | barometer mb |
| 20260905080033 | 69 | 352 | 3.0 | 8.0 | 0.00 | 3.36 | 0.00 | 99 | 1014.1 |
| 20260905075031 | 69 | 344 | 3.0 | 8.0 | 0.00 | 3.40 | 0.00 | 99 | 1014.2 |
| 20260905074027 | 69 | 345 | 3.0 | 7.0 | 0.00 | 3.44 | 0.00 | 99 | 1014.2 |
| 20260905073023 | 69 | 350 | 3.0 | 8.0 | 0.00 | 3.48 | 0.00 | 99 | 1014.3 |
| 20260905072019 | 69 | 348 | 3.0 | 7.0 | 0.00 | 3.54 | 0.00 | 99 | 1014.2 |
| 20260905071017 | 69 | 348 | 2.0 | 6.0 | 0.00 | 3.55 | 0.00 | 99 | 1014.2 |
| 20260905070033 | 69 | 349 | 3.0 | 7.0 | 0.00 | 3.56 | 0.00 | 99 | 1014.2 |
| 20260905065031 | 69 | 351 | 2.0 | 7.0 | 0.00 | 3.57 | 0.00 | 99 | 1014.3 |
| 20260905064046 | 70 | 3 | 2.0 | 7.0 | 0.00 | 3.57 | 0.00 | 99 | 1014.5 |
| 20260905063023 | 70 | 347 | 2.0 | 4.0 | 0.00 | 3.57 | 0.00 | 99 | 1014.5 |
| 20260905062100 | 70 | 341 | 1.0 | 3.0 | 0.00 | 3.58 | 0.00 | 99 | 1014.5 |
| 20260905061016 | 70 | 346 | 1.0 | 2.0 | 0.00 | 3.59 | 0.00 | 99 | 1014.5 |
| 20260905060033 | 69 | 337 | 1.0 | 3.0 | 0.00 | 3.59 | 0.00 | 99 | 1014.5 |
| 20260905055031 | 69 | 338 | 1.0 | 3.0 | 0.00 | 3.59 | 0.00 | 99 | 1014.5 |
| 20260905054027 | 69 | 353 | 2.0 | 4.0 | 0.00 | 3.59 | 0.00 | 99 | 1014.5 |
| 20260905053024 | 69 | 349 | 1.0 | 6.0 | 0.00 | 3.60 | 0.00 | 99 | 1014.2 |
| 20260905052020 | 70 | 355 | 1.0 | 3.0 | 0.00 | 3.62 | 0.00 | 99 | 1014.1 |
| 20260905051017 | 70 | 343 | 1.0 | 2.0 | 0.00 | 3.62 | 0.00 | 99 | 1014.2 |
| 20260905050035 | 70 | 337 | 1.0 | 2.0 | 0.00 | 3.62 | 0.00 | 99 | 1014.3 |
| 20260905045031 | 69 | 343 | 0.0 | 1.0 | 0.00 | 3.62 | 3.62 | 99 | 1014.4 |
| 20260905044027 | 69 | 346 | 1.0 | 1.0 | 0.00 | 3.62 | 3.62 | 99 | 1014.3 |
| 20260905043024 | 69 | 358 | 1.0 | 4.0 | 0.00 | 3.62 | 3.62 | 99 | 1014.3 |
| 20260905042021 | 70 | 5 | 1.0 | 3.0 | 0.00 | 3.62 | 3.62 | 99 | 1014.4 |
| 20260905041017 | 69 | 356 | 1.0 | 3.0 | 0.00 | 3.63 | 3.62 | 99 | 1014.5 |
| 20260905040034 | 69 | 355 | 2.0 | 3.0 | 0.00 | 3.63 | 3.62 | 99 | 1014.5 |
| 20260905035031 | 69 | 350 | 2.0 | 4.0 | 0.00 | 3.63 | 3.62 | 99 | 1014.3 |
| 20260905034028 | 69 | 15 | 1.0 | 3.0 | 0.00 | 3.63 | 3.62 | 99 | 1014.2 |
| 20260905033046 | 70 | 8 | 1.0 | 6.0 | 0.00 | 3.63 | 3.62 | 99 | 1014.4 |
| 20260905032143 | 71 | 16 | 1.0 | 3.0 | 0.00 | 3.63 | 3.62 | 99 | 1014.3 |
| 20260905031018 | 71 | 202 | 1.0 | 3.0 | 0.00 | 3.63 | 3.62 | 99 | 1014.0 |
| 20260905030055 | 70 | 181 | 0.0 | 2.0 | 0.00 | 3.63 | 3.62 | 99 | 1014.0 |
| 20260905025032 | 70 | 64 | 0.0 | 1.0 | 0.00 | 3.63 | 3.62 | 99 | 1014.1 |
| 20260905024049 | 70 | 0.0 | 0.0 | 0.00 | 3.63 | 3.62 | 99 | 1014.0 | |
| 20260905023046 | 69 | 0.0 | 0.0 | 0.00 | 3.63 | 3.62 | 99 | 1014.2 | |
| 20260905022023 | 69 | 7 | 0.0 | 1.0 | 0.00 | 3.63 | 3.62 | 99 | 1014.3 |
| 20260905021019 | 69 | 13 | 0.0 | 1.0 | 0.00 | 3.63 | 3.62 | 99 | 1014.1 |
| 20260905020016 | 69 | 348 | 0.0 | 1.0 | 0.00 | 3.63 | 3.62 | 99 | 1014.1 |
| 20260905015033 | 69 | 349 | 0.0 | 1.0 | 0.00 | 3.63 | 3.62 | 99 | 1014.2 |
| 20260905014030 | 69 | 334 | 1.0 | 2.0 | 0.00 | 3.63 | 3.62 | 99 | 1014.3 |
| 20260905013028 | 68 | 341 | 1.0 | 2.0 | 0.00 | 3.63 | 3.62 | 99 | 1014.0 |
| 20260905012024 | 68 | 352 | 1.0 | 3.0 | 0.00 | 3.63 | 3.62 | 99 | 1014.1 |
| 20260905011020 | 69 | 355 | 2.0 | 6.0 | 0.00 | 3.63 | 3.62 | 99 | 1014.1 |
| 20260905010017 | 69 | 6 | 2.0 | 4.0 | 0.00 | 3.63 | 3.62 | 99 | 1014.2 |
| 20260905005034 | 69 | 7 | 1.0 | 2.0 | 0.00 | 3.63 | 3.62 | 98 | 1014.1 |
| 20260905004030 | 69 | 353 | 1.0 | 2.0 | 0.00 | 3.63 | 3.62 | 97 | 1013.8 |
| 20260905003027 | 70 | 36 | 0.0 | 1.0 | 0.00 | 3.63 | 3.62 | 95 | 1013.8 |
| 20260905002044 | 71 | 337 | 0.0 | 2.0 | 0.00 | 3.63 | 3.62 | 94 | 1013.8 |
| 20260905001041 | 72 | 356 | 1.0 | 3.0 | 0.00 | 3.63 | 3.62 | 91 | 1013.8 |
| 20260905000018 | 74 | 57 | 1.0 | 3.0 | 0.00 | 3.63 | 3.62 | 91 | 1013.5 |
| 20260904235034 | 74 | 0.0 | 0.0 | 0.00 | 3.63 | 3.62 | 93 | 1013.5 | |
| 20260904234032 | 73 | 156 | 0.0 | 1.0 | 0.00 | 3.63 | 3.62 | 93 | 1013.5 |
| 20260904233028 | 73 | 138 | 0.0 | 1.0 | 0.00 | 3.63 | 3.62 | 92 | 1013.5 |
| 20260904232025 | 74 | 136 | 1.0 | 1.0 | 0.00 | 3.63 | 3.62 | 92 | 1013.5 |
| 20260904231122 | 74 | 138 | 0.0 | 3.0 | 0.00 | 3.63 | 3.62 | 91 | 1013.5 |
| 20260904230018 | 74 | 147 | 1.0 | 3.0 | 0.00 | 3.63 | 3.62 | 90 | 1013.4 |
| 20260904225115 | 75 | 141 | 2.0 | 3.0 | 0.00 | 3.63 | 3.62 | 90 | 1013.3 |
| 20260904224033 | 75 | 164 | 1.0 | 3.0 | 0.00 | 3.63 | 3.62 | 88 | 1013.2 |
| 20260904223029 | 75 | 137 | 1.0 | 2.0 | 0.00 | 3.63 | 3.62 | 87 | 1013.1 |
| 20260904222027 | 76 | 137 | 1.0 | 2.0 | 0.00 | 3.63 | 3.62 | 87 | 1013.2 |
| 20260904221022 | 76 | 145 | 1.0 | 3.0 | 0.00 | 3.63 | 3.62 | 87 | 1013.2 |
| 20260904220019 | 75 | 136 | 1.0 | 3.0 | 0.00 | 3.63 | 3.62 | 88 | 1013.4 |
| 20260904215016 | 75 | 137 | 1.0 | 4.0 | 0.00 | 3.63 | 3.62 | 88 | 1013.2 |
| 20260904214033 | 75 | 151 | 2.0 | 6.0 | 0.00 | 3.63 | 3.62 | 86 | 1013.2 |
| 20260904213050 | 76 | 154 | 1.0 | 3.0 | 0.00 | 3.63 | 3.62 | 85 | 1013.0 |
| 20260904212026 | 76 | 144 | 1.0 | 4.0 | 0.00 | 3.63 | 3.62 | 85 | 1012.9 |
| 20260904211024 | 76 | 149 | 1.0 | 4.0 | 0.00 | 3.63 | 3.62 | 83 | 1012.8 |
| 20260904210020 | 77 | 138 | 2.0 | 4.0 | 0.00 | 3.63 | 3.62 | 82 | 1012.8 |
| 20260904205017 | 77 | 126 | 2.0 | 7.0 | 0.00 | 3.63 | 3.62 | 81 | 1012.9 |
| 20260904204033 | 77 | 139 | 2.0 | 6.0 | 0.00 | 3.63 | 3.62 | 81 | 1012.9 |
| 20260904203031 | 77 | 124 | 2.0 | 6.0 | 0.00 | 3.63 | 3.62 | 81 | 1013.0 |
| 20260904202046 | 77 | 123 | 2.0 | 6.0 | 0.00 | 3.63 | 3.62 | 81 | 1013.0 |
| 20260904201023 | 76 | 114 | 2.0 | 6.0 | 0.00 | 3.63 | 3.62 | 81 | 1013.1 |
| 20260904200019 | 76 | 107 | 3.0 | 7.0 | 0.00 | 3.63 | 3.62 | 81 | 1013.2 |
| 20260904195016 | 76 | 133 | 2.0 | 4.0 | 0.00 | 3.63 | 3.62 | 81 | 1013.2 |
| 20260904194034 | 77 | 107 | 2.0 | 6.0 | 0.00 | 3.63 | 3.62 | 80 | 1013.4 |
| 20260904193029 | 77 | 119 | 2.0 | 4.0 | 0.00 | 3.63 | 3.62 | 81 | 1013.4 |
| 20260904192026 | 76 | 147 | 2.0 | 4.0 | 0.00 | 3.63 | 3.62 | 82 | 1013.5 |
| 20260904191103 | 75 | 142 | 2.0 | 7.0 | 0.00 | 3.63 | 3.62 | 83 | 1013.5 |
| 20260904190019 | 73 | 128 | 2.0 | 7.0 | 0.00 | 3.63 | 3.62 | 85 | 1013.8 |
| 20260904185016 | 73 | 123 | 2.0 | 6.0 | 0.00 | 3.63 | 3.62 | 84 | 1013.7 |
| 20260904184033 | 75 | 121 | 2.0 | 8.0 | 0.00 | 3.63 | 3.62 | 83 | 1013.5 |
| 20260904183029 | 74 | 145 | 2.0 | 6.0 | 0.00 | 3.63 | 3.62 | 84 | 1013.5 |
| 20260904182026 | 74 | 133 | 3.0 | 7.0 | 0.00 | 3.63 | 3.62 | 83 | 1013.5 |
| 20260904181023 | 73 | 134 | 2.0 | 7.0 | 0.00 | 3.63 | 3.62 | 86 | 1013.4 |
| 20260904180020 | 71 | 134 | 2.0 | 8.0 | 0.00 | 3.63 | 3.62 | 86 | 1013.4 |
| 20260904175016 | 73 | 133 | 2.0 | 4.0 | 0.00 | 3.63 | 3.62 | 84 | 1013.2 |
| 20260904174033 | 73 | 126 | 2.0 | 4.0 | 0.00 | 3.63 | 3.62 | 86 | 1013.4 |
| 20260904173030 | 72 | 127 | 2.0 | 4.0 | 0.00 | 3.63 | 3.62 | 88 | 1013.5 |
| 20260904172027 | 71 | 114 | 1.0 | 4.0 | 0.00 | 3.63 | 3.62 | 88 | 1013.5 |
| 20260904171024 | 72 | 105 | 3.0 | 7.0 | 0.00 | 3.63 | 3.62 | 86 | 1013.5 |
| 20260904170020 | 73 | 142 | 2.0 | 4.0 | 0.00 | 3.63 | 3.62 | 93 | 1013.5 |
| 20260904165058 | 72 | 183 | 2.0 | 9.0 | 0.00 | 3.63 | 3.62 | 95 | 1013.6 |
| 20260904164033 | 71 | 208 | 1.0 | 6.0 | 0.00 | 3.63 | 3.62 | 99 | 1013.6 |
| 20260904163031 | 70 | 221 | 0.0 | 2.0 | 0.00 | 3.63 | 3.62 | 99 | 1013.5 |
| 20260904162047 | 69 | 171 | 1.0 | 4.0 | 0.00 | 3.63 | 3.62 | 99 | 1013.4 |
| 20260904161023 | 69 | 190 | 2.0 | 9.0 | 0.00 | 3.63 | 3.62 | 99 | 1013.5 |
| 20260904160021 | 69 | 212 | 2.0 | 10.0 | 0.00 | 3.63 | 3.62 | 99 | 1013.6 |
| 20260904155017 | 69 | 229 | 3.0 | 9.0 | 0.00 | 3.63 | 3.62 | 99 | 1013.4 |
| 20260904154033 | 68 | 229 | 2.0 | 9.0 | 0.00 | 3.63 | 3.62 | 99 | 1013.3 |
| 20260904153030 | 68 | 243 | 3.0 | 8.0 | 0.00 | 3.63 | 3.62 | 99 | 1013.5 |
| 20260904152027 | 68 | 217 | 2.0 | 8.0 | 0.01 | 3.63 | 3.62 | 99 | 1013.4 |
| 20260904151025 | 68 | 205 | 2.0 | 8.0 | 0.01 | 3.63 | 3.62 | 99 | 1013.4 |
| 20260904150020 | 67 | 203 | 2.0 | 8.0 | 0.01 | 3.63 | 3.62 | 99 | 1013.5 |
| 20260904145017 | 67 | 220 | 2.0 | 9.0 | 0.01 | 3.64 | 3.62 | 99 | 1013.8 |
| 20260904144034 | 67 | 242 | 2.0 | 8.0 | 0.01 | 3.64 | 3.62 | 99 | 1013.7 |
| 20260904143031 | 67 | 242 | 4.0 | 16.0 | 0.02 | 3.64 | 3.62 | 99 | 1013.9 |
| 20260904142028 | 67 | 245 | 3.0 | 9.0 | 0.06 | 3.65 | 3.61 | 99 | 1013.9 |
| 20260904141025 | 67 | 230 | 3.0 | 8.0 | 0.09 | 3.67 | 3.61 | 99 | 1013.7 |
| 20260904140022 | 67 | 224 | 4.0 | 11.0 | 0.16 | 3.68 | 3.61 | 99 | 1013.5 |
| 20260904135018 | 67 | 205 | 3.0 | 7.0 | 0.16 | 3.74 | 3.61 | 99 | 1013.7 |
| 20260904134035 | 67 | 195 | 2.0 | 6.0 | 0.17 | 3.74 | 3.61 | 99 | 1014.7 |
| 20260904133051 | 67 | 200 | 1.0 | 3.0 | 0.16 | 3.73 | 3.60 | 99 | 1015.6 |
| 20260904132028 | 67 | 257 | 2.0 | 8.0 | 0.11 | 3.68 | 3.55 | 99 | 1016.4 |
| 20260904131105 | 66 | 264 | 2.0 | 4.0 | 0.13 | 3.65 | 3.52 | 99 | 1015.9 |
| 20260904130022 | 66 | 206 | 3.0 | 11.0 | 0.12 | 3.58 | 3.45 | 99 | 1014.7 |
| 20260904125018 | 66 | 214 | 3.0 | 9.0 | 0.13 | 3.58 | 3.45 | 99 | 1014.5 |
| 20260904124035 | 65 | 197 | 3.0 | 8.0 | 0.13 | 3.57 | 3.44 | 99 | 1014.5 |
| 20260904123032 | 65 | 192 | 2.0 | 6.0 | 0.17 | 3.57 | 3.44 | 99 | 1014.4 |
| 20260904122029 | 65 | 193 | 3.0 | 8.0 | 0.30 | 3.57 | 3.44 | 99 | 1014.5 |
| 20260904121025 | 65 | 184 | 3.0 | 8.0 | 0.40 | 3.52 | 3.39 | 99 | 1014.7 |
| 20260904120022 | 65 | 205 | 3.0 | 8.0 | 0.50 | 3.46 | 3.33 | 99 | 1015.2 |
| 20260904115039 | 66 | 172 | 2.0 | 6.0 | 0.66 | 3.45 | 3.32 | 99 | 1014.6 |
| 20260904114015 | 66 | 191 | 2.0 | 7.0 | 0.71 | 3.44 | 3.31 | 99 | 1015.2 |
| 20260904113032 | 66 | 202 | 1.0 | 3.0 | 0.90 | 3.40 | 3.27 | 99 | 1015.5 |
| 20260904112029 | 66 | 197 | 1.0 | 4.0 | 1.01 | 3.27 | 3.14 | 99 | 1015.3 |
| 20260904111026 | 66 | 247 | 1.0 | 6.0 | 1.04 | 3.12 | 2.99 | 99 | 1015.5 |
| 20260904110024 | 66 | 139 | 1.0 | 4.0 | 0.97 | 2.96 | 2.83 | 99 | 1015.3 |
| 20260904105019 | 65 | 346 | 1.0 | 6.0 | 1.21 | 2.79 | 2.66 | 99 | 1015.7 |
| 20260904104036 | 65 | 357 | 2.0 | 10.0 | 1.20 | 2.73 | 2.60 | 99 | 1015.2 |
| 20260904103053 | 66 | 247 | 1.0 | 4.0 | 0.98 | 2.50 | 2.37 | 99 | 1015.1 |
| 20260904102030 | 66 | 40 | 3.0 | 13.0 | 0.75 | 2.26 | 2.13 | 99 | 1015.3 |
| 20260904101028 | 66 | 19 | 2.0 | 7.0 | 0.66 | 2.08 | 1.95 | 99 | 1016.6 |
| 20260904100023 | 66 | 293 | 1.0 | 3.0 | 0.63 | 1.99 | 1.86 | 99 | 1014.9 |
| 20260904095022 | 66 | 93 | 2.0 | 8.0 | 0.25 | 1.58 | 1.45 | 99 | 1014.6 |
| 20260904094057 | 66 | 228 | 3.0 | 11.0 | 0.24 | 1.53 | 1.40 | 99 | 1013.2 |
| 20260904093034 | 66 | 209 | 3.0 | 8.0 | 0.35 | 1.52 | 1.39 | 99 | 1013.1 |
| 20260904092031 | 67 | 145 | 3.0 | 10.0 | 1.01 | 1.51 | 1.38 | 99 | 1013.5 |
| 20260904091048 | 67 | 172 | 1.0 | 6.0 | 1.03 | 1.42 | 1.29 | 99 | 1013.9 |
| 20260904090024 | 67 | 172 | 2.0 | 4.0 | 0.97 | 1.36 | 1.23 | 99 | 1013.8 |
| 20260904085019 | 67 | 147 | 2.0 | 6.0 | 0.98 | 1.33 | 1.20 | 99 | 1013.5 |
| 20260904084035 | 68 | 111 | 3.0 | 19.0 | 0.98 | 1.29 | 1.16 | 99 | 1014.1 |
| 20260904083031 | 69 | 1 | 4.0 | 16.0 | 0.90 | 1.17 | 1.04 | 99 | 1016.9 |
| 20260904082028 | 69 | 358 | 5.0 | 18.0 | 0.29 | 0.50 | 0.37 | 99 | 1014.9 |
| 20260904081044 | 69 | 208 | 4.0 | 15.0 | 0.19 | 0.39 | 0.26 | 99 | 1011.7 |